Location: Unspecified
(58.7730°N, 5.8460°E)
Time: 21:26:08
(UTC+02:00)

Cosmos 1674 - Visible Passes

Search period start: 31 July 2015 00:00
Search period end: 10 August 2015 00:00
Orbit: 505 x 531 km, 82.5° (Epoch: 31 July)

Date Brightness Start Highest point End Pass type
(mag) Time Alt. Az. Time Alt. Az. Time Alt. Az.
31 Jul 5.5 03:20:17 10° N 03:23:09 19° ENE 03:26:03 10° ESE visible
01 Aug 5.6 03:06:13 10° NNE 03:08:53 18° ENE 03:11:37 10° E visible
02 Aug 5.6 02:52:10 10° NNE 02:54:37 16° NE 02:57:09 10° E visible
02 Aug 2.8 04:27:09 10° NNW 04:31:03 88° ENE 04:34:58 10° SSE visible
03 Aug 5.6 02:38:08 10° NNE 02:40:21 15° NE 02:42:40 10° E visible
03 Aug 2.9 04:12:57 10° NNW 04:16:52 78° ENE 04:20:47 10° SSE visible
04 Aug 5.6 02:24:08 10° NNE 02:26:04 13° NE 02:28:07 10° E visible
04 Aug 3.1 03:58:46 10° N 04:02:40 69° ENE 04:06:35 10° SSE visible
05 Aug 5.7 02:10:11 10° NNE 02:11:46 12° NE 02:13:29 10° ENE visible
05 Aug 3.3 03:44:35 10° N 03:48:28 60° ENE 03:52:21 10° SSE visible
06 Aug 5.8 01:56:20 10° NNE 01:57:28 11° NE 01:58:45 10° ENE visible
06 Aug 3.5 03:30:24 10° N 03:34:15 53° ENE 03:38:06 10° SSE visible
07 Aug 5.9 01:42:50 10° NE 01:43:09 10° NE 01:43:37 10° NE visible
07 Aug 3.7 03:16:13 10° N 03:20:01 47° ENE 03:23:49 10° SE visible
08 Aug 3.9 03:02:03 10° N 03:05:47 41° ENE 03:09:32 10° SE visible
08 Aug 3.8 04:38:03 10° NNW 04:41:29 29° W 04:44:52 10° SSW visible
09 Aug 4.1 02:47:53 10° N 02:51:32 37° ENE 02:55:13 10° SE visible
09 Aug 3.6 04:23:46 10° NNW 04:27:19 32° W 04:30:49 10° SSW visible
